[[{"header":{"parameterUnit":"m.s-1","parameterCategory":1,"la1":30.2991,"la2":30.254,"lo1":-89.0895,"lo2":-89.0444,"dy":0.0017,"dx":0.0017,"nx":28,"ny":28,"refTime":"2026-02-07T03:00:00:Z","depth":0,"parameterNumber":2,"parameterNumberName":"U-component_of_WINDS"},"data":[0,0,0,0,0,0,0,0,0,0,0,0,0,0,0,0,0,0,0,0,0,0,0,0,0,0,0,0,0,0,0,0,0,0,0,0,0,0,0,0,0,0,0,0,0,0,0,0,0,0,0,0,0,0,0,0,0,0,-1.5257,-1.5257,0,-1.5239,-1.5239,-1.5239,-1.5171,-1.5169,-1.5168,-1.5166,-1.5151,-1.5152,-1.5154,0,0,0,0,0,0,0,0,0,0,0,0,0,-1.5236,-1.5237,-1.5257,-1.5257,-1.5257,-1.5239,-1.5239,-1.5239,-1.5171,-1.5169,-1.5167,-1.5166,-1.5151,-1.5152,-1.5154,0,0,0,0,0,0,0,0,0,0,0,0,0,-1.5235,-1.5237,-1.5257,-1.5221,-1.5217,-1.524,-1.5239,-1.5239,-1.5172,-1.5169,-1.5167,-1.5165,-1.5151,-1.5152,-1.5154,-1.5211,0,0,-1.5159,-1.5159,0,0,0,0,0,0,0,0,-1.5235,-1.5236,-1.5226,-1.5223,-1.5219,-1.5205,-1.5226,-1.523,-1.5172,-1.5189,-1.5166,-1.5164,-1.5171,-1.5171,-1.5173,-1.521,-1.5209,-1.5159,-1.516,-1.5161,-1.5161,0,0,0,0,0,0,0,-1.5235,-1.5236,-1.525,-1.5226,-1.5222,-1.5207,-1.5204,-1.5227,-1.5194,-1.5187,-1.5182,-1.5181,-1.5169,-1.5172,-1.5172,-1.5209,-1.5159,-1.516,-1.5161,-1.5162,-1.5294,-1.5296,0,0,0,0,0,0,-1.524,-1.5237,-1.5251,-1.525,-1.5221,-1.5209,-1.5206,-1.5212,-1.5193,-1.5188,-1.5183,-1.5178,-1.517,-1.517,-1.5171,-1.5238,-1.516,-1.5162,-1.5163,-1.5291,-1.5295,-1.5297,0,0,0,0,0,0,-1.524,-1.5242,-1.5252,-1.5242,-1.5242,-1.5212,-1.5219,-1.5213,-1.5215,-1.519,-1.5184,-1.5192,-1.5168,-1.5169,-1.5202,-1.5236,-1.5163,-1.5164,-1.5288,-1.5292,-1.5296,-1.5371,0,0,0,0,0,0,-1.5239,-1.5242,-1.5263,-1.5243,-1.5243,-1.5281,-1.5221,-1.5214,-1.5218,-1.5211,-1.5196,-1.5192,-1.5166,-1.52,-1.5203,-1.5237,-1.5165,-1.5285,-1.529,-1.5295,-1.5365,-1.5377,-1.5387,0,0,0,0,0,-1.5239,-1.5285,-1.5264,-1.5266,-1.5267,-1.5283,-1.5283,-1.5252,-1.5221,-1.5242,-1.5226,-1.5192,-1.5232,-1.5204,-1.5207,-1.5242,-1.5283,-1.5289,-1.5294,-1.536,-1.5375,-1.5387,0,0,0,0,0,0,-1.531,-1.5281,-1.5258,-1.5298,-1.5294,-1.5272,-1.5297,-1.5268,-1.5273,-1.5266,-1.5229,-1.5226,-1.5265,-1.5256,-1.5225,-1.5297,-1.5252,-1.5259,-1.5301,-1.5314,-1.5325,-1.5326,-1.5167,0,0,0,0,0,-1.5331,-1.5345,-1.5319,-1.5358,-1.5356,-1.5327,-1.5333,-1.531,-1.5304,-1.5302,-1.5288,-1.5284,-1.5296,-1.5304,-1.5314,-1.5364,-1.536,-1.539,-1.54,-1.5409,-1.5416,-1.5443,-1.5456,-1.5316,-1.5316,-1.5316,0,0,-1.5373,-1.5359,-1.537,-1.5372,-1.5365,-1.5382,-1.5326,-1.5346,-1.5359,-1.5305,-1.5335,-1.5325,-1.5318,-1.536,-1.5378,-1.5355,-1.5454,-1.5417,-1.5424,-1.5426,-1.5451,-1.5464,-1.5476,-1.532,-1.5319,-1.5319,0,0,-1.5459,-1.5449,-1.5481,-1.5475,-1.5466,-1.5446,-1.5454,-1.5437,-1.5428,-1.5457,-1.5417,-1.5433,-1.5453,-1.5451,-1.5452,-1.5539,-1.5508,-1.5543,-1.5599,-1.5626,-1.5638,-1.5647,-1.5679,-1.5691,-1.5549,-1.5549,-1.555,0,-1.5513,-1.5536,-1.5501,-1.5523,-1.5526,-1.5477,-1.551,-1.5507,-1.5502,-1.5505,-1.5479,-1.5504,-1.5497,-1.5538,-1.5559,-1.5562,-1.557,-1.5544,-1.5639,-1.5648,-1.5656,-1.5687,-1.5699,-1.5554,-1.5553,-1.5553,-1.5552,0,-1.5603,-1.562,-1.5647,-1.5642,-1.5647,-1.5675,-1.5646,-1.5656,-1.5632,-1.5616,-1.5648,-1.5637,-1.5643,-1.5651,-1.5629,-1.569,-1.5676,-1.5645,-1.5599,-1.5675,-1.5703,-1.5714,-1.556,-1.5558,-1.5557,-1.5556,0,0,-1.5733,-1.5709,-1.572,-1.5718,-1.5705,-1.5717,-1.5744,-1.5749,-1.5759,-1.5758,-1.578,-1.5799,-1.577,-1.5772,-1.5749,-1.5773,-1.5844,-1.5739,-1.5738,-1.576,-1.5912,-1.5937,-1.595,-1.5824,-1.5826,-1.5827,-1.5913,0,-1.5815,-1.5857,-1.5827,-1.5875,-1.5891,-1.5846,-1.5869,-1.5864,-1.5851,-1.5863,-1.5848,-1.5863,-1.5823,-1.5824,-1.5845,-1.5831,-1.5874,-1.5824,-1.5845,-1.5846,-1.5849,-1.5965,-1.599,-1.6071,-1.5924,-1.5926,-1.5927,0,-1.5917,-1.5919,-1.5969,-1.5953,-1.5959,-1.598,-1.5984,-1.5996,-1.599,-1.5979,-1.5981,-1.5953,-1.5979,-1.5934,-1.597,-1.5937,-1.5944,-1.5938,-1.5941,-1.5942,-1.5892,-1.597,-1.6096,-1.6109,-1.5944,-1.5942,-1.5941,0,-1.6008,-1.6023,-1.6055,-1.6055,-1.6037,-1.6054,-1.6048,-1.604,-1.6046,-1.6049,-1.6053,-1.6061,-1.6065,-1.6072,-1.6047,-1.6016,-1.6088,-1.6039,-1.608,-1.6081,-1.6097,-1.6097,-1.6228,-1.6101,-1.6101,-1.61,-1.61,0,-1.6103,-1.6135,-1.6096,-1.6116,-1.6151,-1.6117,-1.6153,-1.6143,-1.6136,-1.6154,-1.6116,-1.6134,-1.6099,-1.6115,-1.6095,-1.6129,-1.6131,-1.6124,-1.6118,-1.6128,-1.6129,-1.6132,-1.6126,-1.6104,-1.6103,-1.6102,-1.6102,0,-1.621,-1.6185,-1.6217,-1.6198,-1.6194,-1.6221,-1.6206,-1.6224,-1.6208,-1.6232,-1.6235,-1.6211,-1.6226,-1.6202,-1.6215,-1.6202,-1.625,-1.6235,-1.6251,-1.6247,-1.629,-1.6286,-1.6428,-1.6445,-1.6307,-1.6308,-1.6309,0,-1.6272,-1.6296,-1.628,-1.6289,-1.6285,-1.63,-1.6306,-1.6274,-1.6282,-1.6279,-1.6298,-1.631,-1.6319,-1.6347,-1.6331,-1.6341,-1.6327,-1.6376,-1.6328,-1.6337,-1.6329,-1.6328,-1.6331,-1.6386,-1.6388,-1.6389,-1.639,0,-1.6386,-1.6373,-1.6382,-1.6388,-1.6396,-1.64,-1.64,-1.641,-1.6377,-1.6388,-1.6403,-1.641,-1.6424,-1.6437,-1.6444,-1.6439,-1.641,-1.6405,-1.6415,-1.6425,-1.6434,-1.6431,-1.6279,-1.6402,-1.6401,-1.64,-1.6399,-1.6399,-1.6473,-1.6493,-1.6485,-1.6497,-1.6495,-1.6496,-1.6513,-1.6499,-1.6511,-1.6519,-1.65,-1.6521,-1.6516,-1.6522,-1.6521,-1.6537,-1.6516,-1.653,-1.6534,-1.6538,-1.6545,-1.6431,-1.6539,-1.6538,-1.6538,-1.6537,-1.6537,0,-1.6586,-1.6579,-1.6591,-1.6593,-1.6603,-1.6574,-1.6573,-1.6584,-1.6602,-1.66,-1.661,-1.6628,-1.6642,-1.6627,-1.6639,-1.6655,-1.6642,-1.6659,-1.6658,-1.6657,-1.6563,-1.6554,-1.6669,-1.6669,-1.6669,-1.6669,-1.6669,-1.6669,-1.6646,-1.6677,-1.6664,-1.6695,-1.6688,-1.6707,-1.6709,-1.6711,-1.671,-1.6732,-1.6743,-1.6733,-1.6727,-1.6737,-1.6749,-1.6745,-1.6751,-1.6773,-1.6764,-1.6677,-1.6664,-1.6651,-1.6642,-1.6775,-1.6775,-1.6857,-1.6858,-1.6858]},{"header":{"parameterUnit":"m.s-1","parameterCategory":1,"la1":30.2991,"la2":30.254,"lo1":-89.0895,"lo2":-89.0444,"dy":0.0017,"dx":0.0017,"nx":28,"ny":28,"refTime":"2026-02-07T03:00:00:Z","depth":0,"parameterNumber":3,"parameterNumberName":"V-component_of_WINDS"},"data":[0,0,0,0,0,0,0,0,0,0,0,0,0,0,0,0,0,0,0,0,0,0,0,0,0,0,0,0,0,0,0,0,0,0,0,0,0,0,0,0,0,0,0,0,0,0,0,0,0,0,0,0,0,0,0,0,0,0,-2.3502,-2.3503,0,-2.3594,-2.3595,-2.3596,-2.362,-2.3619,-2.3619,-2.3618,-2.3712,-2.3715,-2.3718,0,0,0,0,0,0,0,0,0,0,0,0,0,-2.3349,-2.3351,-2.3502,-2.3503,-2.3504,-2.3594,-2.3595,-2.3596,-2.362,-2.3619,-2.3618,-2.3618,-2.3711,-2.3714,-2.3718,0,0,0,0,0,0,0,0,0,0,0,0,0,-2.3425,-2.3352,-2.3502,-2.3527,-2.353,-2.3593,-2.3595,-2.3596,-2.362,-2.3619,-2.3618,-2.3617,-2.371,-2.3714,-2.3719,-2.3763,0,0,-2.3732,-2.3734,0,0,0,0,0,0,0,0,-2.3421,-2.3431,-2.3522,-2.3525,-2.3529,-2.3594,-2.3575,-2.3652,-2.362,-2.3586,-2.3618,-2.3617,-2.3673,-2.3681,-2.37,-2.3768,-2.3772,-2.3733,-2.3735,-2.3737,-2.3739,0,0,0,0,0,0,0,-2.3416,-2.3427,-2.3538,-2.3523,-2.3528,-2.3534,-2.3544,-2.359,-2.3633,-2.3589,-2.3591,-2.3601,-2.3675,-2.3695,-2.3702,-2.3773,-2.3733,-2.3737,-2.3739,-2.3741,-2.3884,-2.3885,0,0,0,0,0,0,-2.3406,-2.3422,-2.3535,-2.3541,-2.3472,-2.3537,-2.3549,-2.3574,-2.3633,-2.3641,-2.3602,-2.3602,-2.3688,-2.3697,-2.3706,-2.3763,-2.3737,-2.3742,-2.3744,-2.3883,-2.3884,-2.3886,0,0,0,0,0,0,-2.3402,-2.3416,-2.3532,-2.3482,-2.3498,-2.3541,-2.357,-2.3576,-2.3597,-2.3643,-2.3651,-2.3615,-2.3688,-2.3699,-2.3749,-2.3766,-2.3744,-2.3748,-2.3882,-2.3883,-2.3885,-2.3877,0,0,0,0,0,0,-2.3398,-2.3414,-2.3431,-2.3483,-2.35,-2.3573,-2.3571,-2.3579,-2.3605,-2.3606,-2.3657,-2.3664,-2.3688,-2.3742,-2.3754,-2.3772,-2.3751,-2.388,-2.3883,-2.3884,-2.3876,-2.3878,-2.388,0,0,0,0,0,-2.3392,-2.3425,-2.3432,-2.3445,-2.3522,-2.3574,-2.3584,-2.3611,-2.3606,-2.3624,-2.3654,-2.3663,-2.3763,-2.3747,-2.376,-2.378,-2.3879,-2.3882,-2.3884,-2.3875,-2.3878,-2.388,0,0,0,0,0,0,-2.3374,-2.3432,-2.344,-2.3491,-2.3527,-2.3578,-2.3601,-2.3613,-2.3651,-2.3651,-2.3682,-2.3694,-2.3742,-2.3766,-2.3748,-2.3828,-2.3821,-2.3826,-2.381,-2.3813,-2.3815,-2.3808,-2.3755,0,0,0,0,0,-2.3376,-2.3413,-2.3462,-2.3501,-2.352,-2.3557,-2.3581,-2.3598,-2.3637,-2.3653,-2.3686,-2.3724,-2.3764,-2.379,-2.3829,-2.388,-2.3892,-2.39,-2.3903,-2.3904,-2.3908,-2.3938,-2.3943,-2.3893,-2.3893,-2.3893,0,0,-2.338,-2.3416,-2.3438,-2.3499,-2.3529,-2.3567,-2.357,-2.361,-2.3639,-2.3659,-2.3708,-2.3734,-2.3779,-2.383,-2.3854,-2.3851,-2.3924,-2.3907,-2.3908,-2.3911,-2.3941,-2.3945,-2.395,-2.3895,-2.3895,-2.3895,0,0,-2.3407,-2.3438,-2.3475,-2.3506,-2.3552,-2.3577,-2.3586,-2.3636,-2.3654,-2.3704,-2.3721,-2.3756,-2.3824,-2.3855,-2.388,-2.3921,-2.3932,-2.3933,-2.3944,-2.3973,-2.3977,-2.398,-2.3996,-2.4001,-2.3937,-2.3937,-2.3937,0,-2.3406,-2.3464,-2.3492,-2.3532,-2.3559,-2.358,-2.3618,-2.3647,-2.3703,-2.3722,-2.3719,-2.3806,-2.3837,-2.3896,-2.3906,-2.3926,-2.3938,-2.3927,-2.3974,-2.3978,-2.3981,-2.3996,-2.4002,-2.3937,-2.3937,-2.3937,-2.3937,0,-2.3461,-2.3501,-2.3526,-2.358,-2.361,-2.3649,-2.3684,-2.371,-2.3726,-2.3752,-2.3803,-2.3842,-2.389,-2.3906,-2.3921,-2.3967,-2.3965,-2.3967,-2.3961,-2.3986,-2.4,-2.4006,-2.3937,-2.3937,-2.3937,-2.3937,0,0,-2.3478,-2.3549,-2.3558,-2.3583,-2.3637,-2.3669,-2.3709,-2.3756,-2.3779,-2.3818,-2.3853,-2.3911,-2.3915,-2.3943,-2.3962,-2.3988,-2.4019,-2.3988,-2.3989,-2.3992,-2.4074,-2.4071,-2.4078,-2.4027,-2.4028,-2.4029,-2.407,0,-2.3511,-2.3584,-2.3611,-2.3671,-2.3709,-2.373,-2.3765,-2.3802,-2.3828,-2.3865,-2.3893,-2.3934,-2.3935,-2.3952,-2.3979,-2.4009,-2.4036,-2.4007,-2.406,-2.4061,-2.4048,-2.4085,-2.4082,-2.412,-2.4076,-2.4077,-2.4078,0,-2.356,-2.36,-2.3663,-2.3714,-2.3731,-2.3762,-2.3808,-2.3843,-2.3886,-2.3903,-2.3935,-2.3954,-2.3998,-2.3989,-2.4051,-2.4031,-2.4054,-2.4073,-2.4075,-2.4081,-2.4071,-2.4092,-2.4132,-2.4138,-2.4087,-2.4086,-2.4086,0,-2.3566,-2.3636,-2.3683,-2.3705,-2.3764,-2.3786,-2.3812,-2.3854,-2.3882,-2.3923,-2.3941,-2.3987,-2.4012,-2.4047,-2.4077,-2.4068,-2.4136,-2.413,-2.4152,-2.4152,-2.4165,-2.4164,-2.421,-2.418,-2.418,-2.418,-2.418,0,-2.3601,-2.3639,-2.3687,-2.3716,-2.376,-2.3792,-2.3834,-2.3862,-2.3899,-2.3935,-2.3956,-2.3989,-2.4027,-2.4065,-2.409,-2.4137,-2.4148,-2.4164,-2.417,-2.4162,-2.416,-2.4177,-2.4176,-2.4182,-2.4181,-2.4181,-2.4181,0,-2.3615,-2.3649,-2.3701,-2.3754,-2.3769,-2.3798,-2.3844,-2.3874,-2.3901,-2.3945,-2.3958,-2.4001,-2.4047,-2.4081,-2.414,-2.4157,-2.4208,-2.4214,-2.4193,-2.4196,-2.4216,-2.4214,-2.4275,-2.4285,-2.4249,-2.4249,-2.4249,0,-2.3634,-2.3664,-2.3721,-2.3746,-2.3772,-2.3812,-2.3841,-2.3874,-2.3903,-2.3955,-2.3979,-2.4026,-2.4066,-2.4139,-2.4176,-2.4222,-2.4229,-2.4248,-2.4236,-2.4228,-2.423,-2.4228,-2.4232,-2.4249,-2.4249,-2.4249,-2.425,0,-2.3666,-2.3682,-2.3722,-2.3768,-2.3801,-2.3839,-2.3878,-2.3898,-2.3938,-2.397,-2.4017,-2.4048,-2.411,-2.4157,-2.4207,-2.4235,-2.4249,-2.4253,-2.4261,-2.4253,-2.424,-2.4248,-2.4198,-2.4251,-2.4251,-2.4251,-2.4251,-2.4251,-2.3684,-2.3712,-2.3756,-2.38,-2.3833,-2.3869,-2.39,-2.3931,-2.3972,-2.4024,-2.4042,-2.4091,-2.4136,-2.4205,-2.4233,-2.4273,-2.4272,-2.4283,-2.4286,-2.4288,-2.4288,-2.4234,-2.4282,-2.4282,-2.4282,-2.4282,-2.4282,0,-2.3717,-2.3747,-2.3787,-2.3841,-2.3876,-2.3887,-2.3931,-2.396,-2.4003,-2.4043,-2.4082,-2.4138,-2.4184,-2.4226,-2.4274,-2.4299,-2.4307,-2.431,-2.4309,-2.4315,-2.4285,-2.4274,-2.4303,-2.4303,-2.4303,-2.4303,-2.4303,-2.4303,-2.3738,-2.3786,-2.3807,-2.3873,-2.3903,-2.3951,-2.3976,-2.4009,-2.4042,-2.4103,-2.4142,-2.4168,-2.421,-2.4262,-2.4306,-2.4317,-2.4334,-2.4336,-2.4349,-2.432,-2.4317,-2.4315,-2.4304,-2.4339,-2.4339,-2.4376,-2.4376,-2.4376]}]]